Location: Gettysburg
(39.8310°N, 77.2310°W)
Time: 02:30:22
(UTC-05:00)

ATLAS 2AS CENTAUR R/B - Visible Passes

Search period start: 23 January 2018 00:00
Search period end: 02 February 2018 00:00
Orbit: 909 x 1303 km, 63.7° (Epoch: 18 January)

Date Brightness Start Highest point End Pass type
(mag) Time Alt. Az. Time Alt. Az. Time Alt. Az.
23 Jan 5.8 06:31:16 10° SSE 06:36:46 22° ESE 06:42:29 10° ENE visible
23 Jan 4.4 17:45:33 10° NW 17:52:48 43° WSW 17:59:28 10° S visible
24 Jan 6.2 05:49:43 10° ESE 05:52:32 12° E 05:55:24 10° E visible
24 Jan 6.3 18:56:03 10° W 18:57:35 11° W 18:59:05 10° WSW visible
25 Jan 4.4 06:50:15 10° S 06:57:25 45° ESE 07:05:00 10° NE visible
25 Jan 5.8 18:08:13 10° WNW 18:13:23 20° WSW 18:18:17 10° SSW visible
26 Jan 5.2 06:06:38 10° SSE 06:12:57 29° ESE 06:19:34 10° NE visible
27 Jan 5.7 05:23:56 10° SE 05:28:37 18° ESE 05:33:28 10° ENE visible
28 Jan 3.8 06:26:17 10° SSW 06:33:45 59° ESE 06:41:40 10° NE visible
28 Jan 6.1 17:45:53 10° WNW 17:49:29 14° WSW 17:52:59 10° SW visible
29 Jan 4.5 05:42:18 10° S 05:49:11 38° ESE 05:56:27 10° NE visible
30 Jan 5.2 04:59:00 10° SSE 05:04:47 24° ESE 05:10:48 10° ENE visible
30 Jan 3.1 06:47:14 10° SW 06:54:59 77° NW 07:03:10 10° NNE visible
31 Jan 5.6 04:16:58 10° SE 04:20:31 14° ESE 04:24:08 10° ENE visible
31 Jan 3.3 06:02:29 10° SSW 06:10:09 75° ESE 06:18:16 10° NE visible
01 Feb 3.9 05:18:12 10° S 05:25:29 49° ESE 05:33:11 10° NE visible
